STARLINK-33816 (63677 NORAD) Tracking and Keplerian Element Data

This shows tracking and keplerian element data for the satellite.

Feedback or suggestion? Click here.




ElementValue
Catalog63677
NameSTARLINK-33816
Epoch Orbit3679
Epoch Day354.08438041
Epoch Year2025
RAAN120.6331
Inclination42.9975
Eccentricity9.85E-05
Argument of Perigee50.4756
Mean Anonmoly309.6182
Mean Motion15.27599618
Decay Rate0.00017857
L11 63677U 25085P 25354.08438041 .00017857 00000+0 65648-3 0 9995
L22 63677 42.9975 120.6331 0000985 50.4756 309.6182 15.27599618 36799



Live tracking and technical data element details for STARLINK-33816 (NORAD 63677). STARLINK-33816 can be tracked NOW for your location showing map with azimuth and elevation plus other details from your city location.







IsCatalogInMostPopularTable: catalog: 63677, numindb: 2
Update: records affected: 1



GetName: 63677 STARLINK-33816

Hit Count: updated at: Sun, 08 Feb 2026 08:10:03 GMT